Dewpoint
56 52 54 52 53 50 46 47 38 43 42 38 36 39 41 46 47 43 43 42 43 49 50 51 49 50 50 51 52 53 51 51 53 49 48 55 59 57 57 60 61 63 64 67 68 69 68 68 68 68 69 69 69 69 69 69 69 69 69 69 68 68 68 68 68 67 67 67 67 68 68 67 67 68 68 68 67 68 69 69 69 69 69 69 69 69 69 70 69 69 69 69 69 69 68 70 69
51 51 50 52 50 47 42 45 39 38 39 34 37 41 44 46 44 43 43 47 49 51 52 53 53 52 53 52 53 53 51 50 51 54 54 53 58 54 55 57 59 60 63 65 67 68 68 68 68 68 69 69 69 69 69 68 68 69 69 68 68 68 68 67 67 68 67 68 68 68 67 67 67 68 67 67 68 69 69 68 68 69 68 69 68 68 69 69 68 68 69 68 68 69 69 70 69
51 50 47 50 47 46 45 43 35 35 36 32 37 41 46 45 43 44 47 47 48 49 48 50 50 51 53 52 51 51 50 50 47 52 52 51 52 52 54 56 59 59 61 64 66 67 66 67 67 68 68 69 69 68 68 68 68 68 68 68 68 68 68 67 67 67 67 67 67 67 67 67 67 67 67 67 67 67 68 68 68 67 67 68 67 67 68 69 68 68 69 68 69 69 68 68 68
56 51 50 48 45 46 38 38 35 31 33 39 39 43 45 44 44 48 49 50 48 47 47 47 49 49 50 48 45 50 44 45 48 47 49 49 51 53 54 56 58 59 60 60 64 64 65 65 65 66 67 67 68 67 67 67 67 67 67 67 67 67 67 66 67 67 66 66 66 66 66 67 66 67 67 67 66 66 65 65 66 66 67 67 68 68 68 68 67 67 67 68 68 67 66 67 67
52 53 51 48 42 38 39 36 35 34 28 38 39 43 44 46 47 47 48 48 48 47 48 50 50 46 42 41 41 42 41 43 46 46 48 49 49 51 53 54 56 57 58 58 60 62 63 64 64 65 65 66 66 66 66 66 66 66 66 66 65 65 66 66 66 66 66 65 66 65 65 65 65 65 66 66 65 64 65 64 65 65 65 65 65 66 66 66 66 66 66 66 66 65 65 65 65
51 48 49 47 43 46 42 34 31 28 34 38 38 43 43 46 46 46 47 47 49 50 50 50 50 47 41 40 41 42 42 44 47 45 46 48 48 50 53 54 54 53 56 57 58 60 60 62 63 64 65 65 65 66 65 65 65 65 65 64 64 65 65 65 65 64 64 64 64 64 64 64 64 64 64 64 65 64 64 63 63 64 64 64 64 65 64 63 64 64 64 64 64 64 64 65 64
51 46 48 46 45 46 34 29 27 23 39 41 41 43 44 46 48 48 48 50 51 53 52 48 45 45 44 42 42 43 43 43 45 45 46 48 49 50 52 54 52 51 51 54 56 56 57 60 61 63 63 63 64 64 64 64 64 64 64 64 63 63 64 64 64 63 63 63 63 63 63 62 62 63 63 63 62 64 63 63 62 63 63 64 64 64 63 63 63 63 63 64 63 63 64 64 63
54 50 48 40 42 41 36 32 31 34 41 45 45 44 46 49 50 48 49 49 49 49 51 49 45 42 41 45 40 44 43 44 45 46 46 47 47 49 51 51 50 50 51 50 52 54 56 57 59 60 61 62 63 63 63 63 63 62 63 62 62 62 62 62 62 62 62 62 62 62 61 61 61 62 62 62 62 61 62 62 62 61 61 61 62 63 63 62 62 62 62 62 62 62 63 62 61
49 47 50 43 38 41 37 35 35 43 44 46 45 49 49 49 50 50 49 49 51 51 50 47 50 42 43 40 40 43 43 45 46 46 46 46 45 47 47 47 47 48 49 50 48 49 50 54 55 56 58 59 60 61 61 61 61 61 61 61 61 61 60 61 61 61 61 61 61 61 61 61 60 59 59 60 60 60 61 61 61 61 60 60 60 60 61 61 61 61 61 61 61 61 61 61 61
46 48 40 40 40 34 36 38 35 41 42 46 46 46 46 47 47 47 48 49 50 50 48 48 47 43 42 41 42 42 44 45 46 45 46 45 45 45 45 45 43 44 45 45 45 46 48 51 53 53 54 55 57 57 58 58 58 58 58 59 59 59 59 59 59 59 59 59 59 59 59 59 58 58 57 58 58 59 59 59 59 59 60 60 59 59 59 59 59 59 60 60 60 60 60 60 60
43 47 48 40 35 34 34 37 38 43 43 45 46 47 46 46 46 47 48 50 50 50 50 48 43 42 40 40 40 44 43 44 43 43 44 44 43 44 44 45 41 41 43 44 44 45 44 46 48 50 50 51 53 54 55 55 55 56 56 56 57 57 57 57 57 56 57 57 57 57 57 57 57 56 56 56 56 57 57 57 57 58 58 58 58 58 58 58 58 58 58 58 58 58 57 58 59
42 42 43 37 34 34 33 38 42 43 44 44 45 47 47 47 46 46 48 47 50 49 48 47 44 43 40 40 41 42 41 42 43 43 44 44 44 42 39 38 40 39 39 40 42 41 41 41 42 45 46 47 49 50 51 52 53 54 54 54 55 55 55 55 54 54 54 53 53 54 54 53 54 55 54 54 54 55 55 55 55 55 56 57 57 57 57 57 56 56 56 56 56 56 55 55 56
43 44 40 36 38 37 40 40 42 42 43 44 45 46 49 47 45 46 48 47 49 47 45 42 46 48 41 39 41 42 41 42 42 42 44 42 43 41 39 37 37 37 36 38 38 38 37 37 37 37 40 43 44 46 47 49 50 51 51 51 51 52 51 51 51 51 51 50 50 50 50 51 51 51 52 52 52 52 52 54 53 53 54 55 55 55 54 54 54 54 53 53 53 53 53 53 53
45 45 42 38 40 39 39 39 41 41 43 44 46 49 49 47 45 45 46 43 37 43 44 40 43 42 40 39 40 41 42 43 43 43 41 40 41 42 42 42 37 36 35 35 35 35 36 36 35 35 34 34 34 37 42 44 45 46 47 47 47 48 48 48 47 48 48 47 47 46 46 47 48 48 49 49 50 50 49 50 51 51 53 53 53 53 53 53 53 52 51 52 52 52 52 51 51
45 46 42 40 38 38 41 42 38 42 42 43 45 47 42 37 43 40 36 41 35 34 37 42 39 43 41 40 39 40 41 43 44 43 42 39 40 38 40 42 40 38 39 36 33 33 34 35 35 34 33 33 32 32 33 35 41 42 43 44 44 44 44 44 44 44 44 44 43 43 43 43 43 45 45 46 46 47 47 46 49 50 50 51 50 50 50 50 51 50 50 50 50 50 50 50 49
46 44 40 39 37 37 39 39 40 40 42 43 44 41 39 35 36 36 33 36 34 34 37 37 37 40 40 39 39 39 40 40 42 44 41 41 41 37 36 40 40 39 38 36 32 30 33 33 34 33 33 32 32 30 31 31 35 38 39 40 41 41 41 41 41 41 40 40 40 40 40 37 38 37 42 38 42 43 44 42 45 48 49 49 48 48 49 48 49 49 49 49 49 48 48 46 46
47 46 39 38 37 36 39 37 40 39 42 43 44 44 41 37 35 34 34 35 35 33 33 34 36 36 34 36 38 37 38 38 39 40 41 39 39 37 37 37 35 33 29 28 29 27 27 27 27 29 32 30 30 30 30 30 31 33 32 36 37 38 38 37 37 37 37 37 36 37 36 32 32 32 33 34 38 36 41 42 42 44 47 47 46 45 46 47 47 47 47 47 46 46 45 43 44
46 40 38 37 38 38 38 38 42 43 41 42 43 41 39 39 38 36 35 34 32 33 32 33 33 36 36 34 35 36 36 35 35 36 35 38 37 36 34 35 35 31 28 27 26 29 27 25 25 25 26 27 27 28 28 28 29 29 26 27 29 31 34 33 30 30 34 31 34 31 30 29 29 30 31 35 32 34 35 39 39 41 43 45 43 42 44 44 43 44 45 45 43 43 42 39 39
42 40 39 37 39 42 40 42 45 41 39 39 37 38 38 35 35 35 33 30 33 32 31 32 31 31 33 33 32 33 33 33 33 33 33 32 34 32 31 32 31 31 26 26 25 25 26 24 24 24 24 25 26 26 27 27 25 25 25 25 26 29 29 28 27 28 29 30 29 28 28 28 28 28 29 32 32 34 33 36 37 37 39 41 41 40 40 41 41 42 42 42 41 41 37 37 36
41 42 39 41 42 43 43 45 47 45 41 39 37 35 30 30 37 33 31 30 30 27 29 30 29 28 28 30 31 31 31 30 31 30 30 30 33 33 31 31 31 31 28 27 24 24 25 24 22 23 24 24 24 26 26 24 24 24 22 24 23 23 24 25 26 26 26 28 28 26 25 28 28 25 31 31 30 27 29 33 34 34 35 36 38 34 36 37 37 38 38 39 36 37 34 34 34
41 40 39 40 42 42 44 48 49 50 46 39 36 33 29 29 29 33 33 33 28 28 26 25 25 24 24 27 29 27 29 27 27 28 29 29 30 32 33 31 33 30 30 27 24 23 23 23 22 21 21 22 22 22 23 24 24 22 22 21 21 21 22 22 22 23 24 26 27 24 26 27 26 25 27 26 25 26 27 26 26 27 28 29 33 29 28 29 30 29 29 31 30 33 33 34 34
42 42 42 42 43 42 45 46 50 48 46 42 38 35 30 28 26 27 30 33 27 27 26 24 21 21 21 21 24 26 26 22 22 23 25 27 27 28 31 32 30 29 26 22 22 22 23 23 22 22 21 23 21 20 20 22 22 21 22 21 19 19 22 20 21 21 21 23 25 25 22 24 24 23 25 25 25 24 24 23 25 25 25 26 26 25 25 26 25 25 27 28 28 30 32 32 33
40 42 43 43 44 43 45 45 48 48 44 41 32 29 27 27 27 25 24 23 25 27 26 22 21 20 19 19 20 20 21 20 19 19 19 21 24 25 25 26 24 25 25 23 23 21 21 23 20 21 19 20 20 20 18 18 19 20 19 21 20 18 18 19 19 19 20 21 23 24 21 21 21 21 21 23 23 24 23 23 23 24 24 23 22 22 24 24 23 23 25 27 27 29 30 30 31
41 39 41 43 43 43 43 46 44 44 41 37 31 30 29 31 27 26 27 22 22 22 25 21 20 17 18 17 17 17 18 18 17 17 17 17 18 19 20 20 23 20 20 19 19 18 20 20 19 18 18 17 18 19 17 16 17 18 19 19 18 20 17 17 17 18 20 18 21 21 21 19 19 19 21 20 22 23 22 23 23 23 22 21 22 21 23 21 21 22 24 26 25 26 26 28 29
39 40 41 43 45 46 43 39 38 39 38 37 35 32 29 28 24 23 24 26 21 19 18 17 16 15 14 14 14 14 14 15 16 16 16 16 16 17 17 17 16 16 16 17 18 17 16 19 18 17 17 16 16 17 17 17 16 17 17 17 17 20 16 15 16 17 17 17 18 20 21 18 18 19 20 19 20 22 22 22 21 21 21 20 20 19 21 20 20 21 22 23 24 24 23 25 26
39 40 42 43 44 43 38 36 35 34 36 36 33 28 28 26 26 25 23 24 22 18 16 15 15 14 13 12 12 12 12 12 13 14 14 15 15 15 15 15 15 14 14 15 16 16 15 15 17 15 16 15 15 15 15 16 15 16 16 16 15 17 15 16 16 14 15 16 17 19 19 18 17 18 19 18 19 21 21 22 21 20 19 19 18 19 19 18 18 20 21 22 21 22 21 23 23
39 34 39 41 43 42 38 36 33 33 32 30 28 28 25 25 24 27 23 24 22 18 15 14 13 12 12 11 11 11 10 10 10 12 12 14 13 13 13 13 13 12 12 12 14 14 16 14 16 14 14 17 14 13 14 13 15 14 15 14 15 15 15 15 14 13 14 15 16 18 18 18 17 18 18 18 17 19 20 21 20 19 18 18 18 19 19 18 17 18 20 20 19 20 19 21 21
35 32 35 38 40 41 39 35 33 33 31 27 26 25 26 25 21 20 21 22 23 24 16 14 12 11 10 11 10 10 9 9 10 9 9 10 11 10 11 10 11 12 11 11 13 13 12 13 13 14 12 13 13 12 14 13 13 14 15 13 13 14 15 13 12 12 14 14 17 17 16 16 17 17 18 18 18 18 18 19 20 19 17 17 17 18 18 17 17 18 20 20 20 20 19 20 20
35 35 34 36 40 41 41 37 34 35 29 26 26 27 26 22 20 19 19 18 18 17 15 13 12 11 10 10 9 9 9 9 9 8 9 9 9 9 9 10 9 11 11 10 12 13 11 12 13 12 12 12 12 12 12 12 13 12 13 13 13 14 12 12 11 12 11 13 15 16 16 16 15 16 16 17 18 16 17 18 18 19 18 16 16 18 19 18 16 16 17 17 17 17 19 19 20
34 33 35 33 38 35 34 35 35 35 30 26 30 33 27 19 19 19 19 18 17 16 15 13 12 11 10 9 9 8 8 8 8 8 9 9 9 8 8 8 9 10 11 11 11 12 11 11 10 13 13 11 12 12 12 11 12 13 12 11 12 11 9 9 10 9 10 10 12 15 15 15 14 14 16 16 15 14 16 16 17 17 18 18 16 16 15 15 14 16 15 15 17 15 17 18 16
34 32 34 35 35 33 29 31 35 35 28 27 28 35 26 19 19 19 19 19 19 17 14 13 12 11 11 10 9 8 7 7 6 6 7 7 7 7 7 7 7 7 9 10 9 11 10 10 11 10 11 11 10 9 11 12 12 12 11 10 10 11 9 8 8 8 8 9 9 11 14 14 13 14 15 14 13 13 13 14 14 16 18 18 15 15 14 14 15 16 14 14 15 14 16 16 15
33 32 31 32 34 31 27 29 30 34 29 28 31 35 29 19 18 19 19 19 19 16 14 13 11 11 10 9 8 7 6 7 6 5 5 6 7 7 7 7 7 7 7 8 9 9 10 10 10 10 11 10 10 12 10 11 11 11 11 12 9 11 7 7 6 7 7 6 7 10 12 12 12 13 13 14 12 12 12 12 13 16 17 16 16 15 14 14 14 17 15 15 14 14 15 15 13
32 31 29 29 31 31 26 25 25 26 29 28 31 33 23 19 19 19 19 18 18 16 14 13 11 10 9 8 8 7 8 7 6 5 5 6 6 6 7 6 7 6 6 6 6 6 8 9 10 8 7 11 9 6 7 10 7 7 8 9 9 8 5 5 5 6 6 6 5 6 9 11 10 11 12 12 11 12 11 12 12 15 16 15 15 14 13 14 13 16 14 14 15 12 13 14 11
31 32 28 30 28 28 27 26 25 25 28 31 28 31 21 18 18 18 18 18 18 16 14 12 12 10 10 9 7 7 7 7 6 5 5 5 6 5 5 9 7 6 6 6 4 4 5 8 11 10 8 6 7 7 5 5 4 4 6 7 10 6 7 4 3 4 5 5 5 6 7 7 10 10 10 11 10 11 11 12 12 13 14 13 13 13 12 14 13 13 13 13 12 11 11 12 10
24 29 27 29 28 28 26 25 25 23 28 27 24 27 19 17 17 17 17 17 17 17 14 13 11 10 9 7 7 6 6 7 5 5 6 7 5 5 6 7 5 5 5 4 4 3 3 4 7 8 7 5 5 7 9 7 5 2 2 3 2 2 6 4 3 3 4 5 5 7 6 4 6 9 9 9 8 7 8 9 10 12 12 10 10 11 10 12 14 12 13 12 12 11 11 11 9
26 27 28 28 24 26 27 27 23 23 25 27 24 27 21 17 17 17 17 17 17 15 14 12 11 10 8 8 7 6 6 5 7 7 6 5 6 6 4 4 4 4 3 3 6 4 2 2 3 5 4 3 6 5 7 7 5 4 3 1 2 2 1 4 3 2 4 4 6 5 6 5 4 7 7 6 6 6 6 6 8 10 10 9 8 10 8 9 12 12 12 12 11 9 9 9 9
28 30 30 27 26 25 25 27 22 26 27 22 22 21 19 18 17 16 16 16 16 14 14 13 11 9 8 7 7 7 6 5 8 8 7 7 6 6 6 3 2 2 2 3 3 3 2 1 3 3 4 3 3 4 4 4 5 5 3 -2 -1 -0 2 -0 -1 0 2 3 5 3 4 3 5 5 6 5 4 4 4 4 6 7 8 8 7 8 9 10 10 10 11 10 10 8 8 9 10
31 31 31 28 29 24 27 24 24 28 28 22 20 19 19 18 17 16 16 15 15 14 14 13 11 10 9 8 8 7 6 7 7 5 4 5 4 6 6 3 5 1 1 1 3 2 2 2 1 1 3 4 3 2 3 1 4 3 2 1 -3 -2 -3 -3 -1 -1 -1 2 4 3 2 3 4 3 4 4 3 3 2 2 5 5 6 7 6 7 7 9 7 8 10 8 9 7 6 9 10
31 30 29 28 26 29 26 25 23 22 26 24 19 19 19 17 16 16 15 15 16 15 14 13 11 10 8 7 8 7 5 5 4 3 4 4 5 4 2 2 1 1 1 1 2 2 2 3 2 2 3 5 5 6 3 1 1 3 -1 -2 -3 -1 -2 -4 -3 1 -1 -3 -2 2 2 1 2 1 3 3 1 2 2 2 2 3 5 6 3 4 4 4 5 6 7 7 7 6 5 9 8
29 29 26 24 28 25 19 26 23 21 21 23 19 19 18 16 15 15 16 15 15 15 14 14 13 10 8 7 7 6 4 4 4 3 2 2 3 3 2 2 2 2 1 -0 -1 0 1 4 2 2 2 3 4 5 6 4 5 3 4 3 0 -3 -2 0 -6 -6 -3 -5 -6 -5 -0 0 0 -1 1 2 1 1 2 1 1 2 2 4 1 1 1 1 3 4 5 6 9 5 4 5 7
30 30 27 23 27 26 27 21 22 25 24 23 20 21 21 16 15 14 15 15 13 14 13 12 12 12 10 8 7 6 4 5 4 2 2 2 2 2 2 2 1 0 1 0 0 -0 0 2 3 3 1 2 3 4 1 3 4 4 2 3 3 1 -3 -4 -6 -8 -8 -3 -5 -8 -7 -3 -2 -3 -3 -0 1 0 1 1 1 1 2 3 0 -1 -3 -1 1 1 4 4 5 7 5 4 5
26 31 28 25 26 27 24 23 21 22 21 22 25 21 20 20 17 16 14 13 13 13 13 12 11 10 9 7 7 6 5 6 4 2 3 2 2 2 2 2 1 0 -1 -0 -0 -1 1 2 2 2 2 2 2 4 3 -0 -1 -1 -1 -0 -3 -3 -6 -7 -9 -9 -9 -10 -11 -10 -10 -7 -6 -5 -6 -3 -2 -1 -2 -1 1 0 0 2 1 -2 -3 -3 -2 -1 -1 1 3 7 7 5 2
25 26 31 30 29 29 26 23 26 22 21 22 23 20 20 17 17 16 12 13 13 13 12 12 10 8 8 8 6 5 4 4 4 4 3 2 3 2 2 1 1 -0 -1 -0 -1 1 1 1 3 3 3 1 -1 2 4 0 -2 -3 -3 -3 -4 -5 -7 -8 -7 -10 -11 -11 -8 -11 -11 -10 -7 -8 -10 -9 -5 -4 -4 -4 -2 -2 -1 -1 -2 -3 -5 -5 -4 -2 -2 -1 -0 4 5 3 4
23 29 28 29 29 29 27 26 26 24 23 24 21 21 21 21 19 17 14 13 13 13 11 11 10 8 8 7 5 5 4 3 4 3 2 2 2 2 1 2 0 0 1 1 1 1 1 1 2 2 2 3 2 1 2 2 -2 -2 -2 -4 -3 -7 -8 -8 -7 -7 -13 -9 -12 -12 -13 -13 -11 -11 -12 -15 -11 -9 -7 -10 -9 -6 -2 -2 -2 -3 -6 -5 -3 -2 -3 -2 -3 -2 2 3 3
26 27 28 27 27 27 26 25 23 21 20 20 19 21 18 19 17 14 13 13 14 13 12 11 10 8 8 7 5 5 4 4 3 3 2 2 2 2 1 1 0 1 1 1 1 1 1 1 2 2 1 1 0 1 0 -0 -0 -4 -5 -6 -7 -6 -7 -8 -8 -4 -11 -12 -13 -13 -13 -15 -13 -13 -12 -14 -12 -11 -9 -11 -10 -9 -7 -6 -4 -5 -5 -5 -4 -5 -4 -6 -5 -4 -2 2 0
29 27 27 27 27 26 25 22 21 21 17 19 18 20 19 17 14 14 13 14 15 15 15 12 10 8 8 6 5 5 4 5 3 3 3 2 2 2 1 1 1 2 2 2 1 0 0 1 2 1 0 -0 -1 -1 -2 -2 -1 -4 -7 -6 -7 -11 -11 -12 -11 -10 -12 -15 -14 -14 -14 -15 -14 -14 -12 -15 -12 -11 -10 -12 -10 -10 -8 -6 -2 -5 -8 -5 -6 -6 -5 -5 -4 -5 -5 -4 0
28 27 25 23 22 19 19 19 21 21 18 19 19 19 18 17 15 15 15 15 17 18 15 13 10 8 8 6 6 4 4 3 2 3 3 3 2 2 1 1 1 1 2 1 2 -0 -0 -2 1 -1 -2 -3 -1 -2 -3 -4 -6 -7 -8 -9 -10 -10 -11 -11 -13 -12 -11 -16 -14 -15 -14 -16 -14 -13 -12 -13 -11 -12 -12 -12 -8 -9 -5 -7 -7 -8 -8 -6 -8 -7 -6 -5 -6 -5 -6 -5 -5
27 22 21 21 20 18 19 19 19 18 17 16 14 18 18 16 15 16 16 17 18 18 15 11 8 8 7 6 5 4 3 3 2 2 2 2 2 2 1 1 1 1 1 -0 -1 -1 -1 -2 -2 -2 -3 -4 -4 -4 -5 -6 -7 -7 -6 -8 -9 -10 -10 -11 -12 -13 -11 -15 -15 -14 -14 -15 -14 -12 -11 -12 -11 -12 -11 -13 -9 -9 -9 -9 -7 -5 -3 -4 -6 -7 -7 -7 -6 -4 -2 -3 -3
24 22 22 21 19 18 15 18 17 17 17 14 14 17 17 17 16 19 18 17 16 17 15 11 9 8 7 6 6 4 3 3 2 2 2 2 1 1 1 0 0 -0 -1 -1 -0 -1 -1 -2 -2 -3 -3 -3 -4 -5 -6 -6 -6 -8 -8 -8 -8 -8 -10 -10 -11 -12 -11 -15 -15 -14 -14 -15 -15 -15 -14 -9 -13 -7 -6 -13 -9 -12 -9 -5 -3 -3 -4 -3 -2 -5 -3 -3 -4 -4 -4 -4 -5
22 22 22 21 17 17 16 16 14 14 12 12 14 16 14 15 15 17 15 12 10 12 15 13 10 7 7 6 5 3 3 2 2 2 2 1 1 1 1 0 0 0 -1 -1 -1 -1 -1 -1 -2 -2 -2 -3 -3 -4 -5 -7 -7 -7 -8 -8 -8 -9 -9 -10 -10 -11 -11 -13 -15 -14 -14 -15 -15 -16 -15 -15 -16 -12 -13 -12 -10 -7 -6 -5 -5 -5 -5 -5 -3 -4 -4 -4 -3 -4 -4 -3 -4
23 25 23 23 19 17 14 13 12 14 12 11 12 16 16 13 15 13 10 8 9 10 11 12 10 8 7 5 4 3 3 2 2 2 1 1 1 1 1 0 0 0 0 -0 -1 -1 -1 -1 -1 -1 -2 -2 -4 -4 -4 -5 -8 -7 -7 -8 -8 -8 -8 -9 -9 -9 -11 -11 -14 -13 -14 -15 -16 -16 -15 -16 -15 -13 -13 -13 -13 -11 -11 -8 -7 -7 -6 -6 -6 -5 -5 -4 -5 -5 -4 -4 -6
22 24 25 22 21 23 16 15 14 14 14 15 15 14 15 13 12 12 9 8 8 9 9 8 7 6 5 4 3 3 2 2 2 2 2 1 1 1 1 1 0 0 0 0 -0 -0 -0 -0 -0 -1 -1 -2 -2 -3 -4 -4 -6 -8 -7 -8 -8 -7 -6 -9 -8 -9 -10 -10 -12 -13 -13 -14 -15 -15 -16 -16 -15 -14 -13 -12 -12 -12 -12 -10 -7 -7 -7 -7 -7 -8 -7 -5 -6 -5 -6 -6 -6
22 22 22 23 18 18 20 14 10 11 14 15 19 13 14 14 12 9 9 9 7 8 7 7 6 6 5 5 4 3 2 2 2 2 2 2 2 1 1 1 1 1 1 1 1 1 0 0 0 -0 -1 -1 -2 -2 -4 -5 -8 -10 -8 -8 -9 -7 -7 -8 -8 -8 -9 -9 -10 -12 -12 -13 -14 -14 -13 -13 -13 -13 -14 -13 -13 -12 -11 -9 -8 -9 -8 -8 -8 -8 -7 -8 -7 -7 -6 -7 -9
23 22 21 21 23 22 23 18 16 16 15 16 13 14 13 12 13 9 7 9 7 7 7 6 6 6 5 5 4 3 3 3 2 2 2 2 2 2 2 2 2 2 1 1 1 1 0 0 -0 -0 -1 -2 -2 -2 -3 -8 -11 -12 -10 -10 -10 -8 -8 -7 -6 -7 -8 -9 -10 -12 -13 -14 -14 -13 -13 -13 -13 -14 -13 -12 -14 -14 -14 -13 -10 -10 -9 -8 -9 -11 -9 -8 -7 -6 -7 -8 -8
22 21 24 21 19 19 19 19 16 16 16 15 15 11 12 15 15 10 11 10 9 7 7 6 6 5 5 5 4 4 3 3 3 2 2 2 2 2 2 2 2 2 2 1 1 1 0 0 0 -1 -2 -2 -2 -3 -4 -10 -12 -12 -11 -12 -11 -9 -9 -7 -7 -7 -8 -9 -11 -12 -13 -12 -13 -13 -12 -14 -14 -14 -14 -13 -13 -14 -13 -14 -14 -10 -11 -10 -9 -10 -10 -11 -9 -8 -9 -9 -10
25 23 21 19 18 20 18 19 18 17 15 14 16 13 11 11 13 13 13 13 9 7 6 6 6 6 6 5 4 4 3 3 3 2 2 2 2 2 2 2 2 2 1 1 1 1 0 0 0 -1 -1 -3 -5 -6 -9 -12 -12 -12 -12 -13 -11 -10 -10 -8 -8 -9 -10 -10 -10 -11 -12 -11 -12 -13 -13 -12 -13 -13 -13 -14 -13 -13 -13 -10 -11 -12 -11 -10 -11 -11 -11 -11 -11 -9 -10 -10 -10
20 20 21 19 21 20 20 19 19 17 15 14 13 13 16 11 11 12 13 11 9 7 7 7 6 6 6 5 5 4 4 4 3 3 3 3 3 3 3 3 2 2 2 2 1 1 0 0 -0 -1 -3 -6 -9 -10 -10 -11 -12 -11 -12 -12 -11 -10 -9 -8 -8 -7 -6 -8 -8 -7 -8 -8 -9 -11 -9 -11 -10 -10 -10 -11 -11 -11 -11 -11 -12 -12 -11 -11 -11 -12 -11 -11 -10 -9 -10 -10 -11
21 22 22 21 19 18 17 17 20 18 17 16 13 14 17 9 9 8 9 9 9 8 7 7 6 6 5 5 5 4 4 4 3 3 3 3 4 3 3 3 2 2 2 1 2 2 1 -1 -2 -5 -6 -6 -9 -7 -5 -7 -6 -6 -8 -8 -8 -8 -6 -6 -7 -8 -7 -7 -7 -9 -8 -8 -10 -9 -9 -10 -10 -10 -10 -11 -11 -11 -11 -11 -13 -12 -12 -12 -12 -12 -12 -11 -10 -10 -10 -11 -11